DW6536 Weather Reports


Display with metric or nautical units.
time (UTC)temp
F
wind
direction
speed
MPH
gust
MPH
rain 1hr
in
rain 24hr
in
rain mn
in
humidity
%
barometer
mb
20260905024508 83 117 1.0 0.0 0.00 0.00 0.00 71 1010.7
20260905023010 84 142 1.0 0.0 0.00 0.00 0.00 70 1010.6
20260905021506 84 117 1.0 0.0 0.00 0.00 0.00 70 1010.3
20260905020003 84 149 1.0 0.0 0.00 0.00 0.00 69 1010.3
20260905014503 85 141 2.0 0.0 0.00 0.00 0.00 68 1010.2
20260905013002 85 212 1.0 0.0 0.00 0.00 0.00 67 1010.2
20260905011501 86 133 1.0 0.0 0.00 0.00 0.00 65 1010.0
20260905010003 86 148 1.0 0.0 0.00 0.00 0.00 64 1009.9
20260905004631 86 128 1.0 0.0 0.00 0.00 0.00 64 1009.8
20260905003059 87 131 2.0 0.0 0.00 0.00 0.00 65 1009.5
20260905001559 87 183 3.0 0.0 0.00 0.00 0.00 64 1009.4
20260905000058 88 162 4.0 0.0 0.00 0.00 0.00 62 1009.4
20260904234558 90 122 3.0 0.0 0.00 0.00 0.00 60 1009.2
20260904233057 91 182 3.0 0.0 0.00 0.00 0.00 57 1009.1
20260904231557 93 118 4.0 0.0 0.00 0.00 0.00 54 1009.1
20260904230127 93 221 3.0 0.0 0.00 0.00 0.00 45 1009.3
20260904224601 94 230 3.0 0.0 0.00 0.00 0.00 42 1009.3
20260904223053 95 113 2.0 0.0 0.00 0.00 0.00 42 1009.4
20260904221553 95 147 2.0 0.0 0.00 0.00 0.00 42 1009.4
20260904220054 96 153 1.0 0.0 0.00 0.00 0.00 42 1009.4
20260904214549 95 222 2.0 0.0 0.00 0.00 0.00 41 1009.7
20260904213050 95 128 2.0 0.0 0.00 0.00 0.00 44 1009.9
20260904211543 94 197 2.0 0.0 0.00 0.00 0.00 47 1010.0
20260904210042 94 193 2.0 0.0 0.00 0.00 0.00 45 1010.1
20260904204540 92 180 3.0 0.0 0.00 0.00 0.00 48 1010.4
20260904203039 91 121 3.0 0.0 0.00 0.00 0.00 48 1010.5
20260904201538 93 257 3.0 0.0 0.00 0.00 0.00 51 1010.7
20260904200035 92 124 2.0 0.0 0.00 0.00 0.00 56 1010.9
20260904194531 91 133 3.0 0.0 0.00 0.00 0.00 62 1011.0
20260904193036 90 141 3.0 0.0 0.00 0.00 0.00 65 1011.2
20260904191527 88 148 3.0 0.0 0.00 0.00 0.00 68 1011.4
20260904190037 87 148 3.0 0.0 0.00 0.00 0.00 67 1011.7
20260904184528 88 120 2.0 0.0 0.00 0.00 0.00 67 1011.7
20260904183024 88 169 2.0 0.0 0.00 0.00 0.00 68 1011.8
20260904181524 88 112 2.0 0.0 0.00 0.00 0.00 65 1011.9
20260904180024 88 106 2.0 0.0 0.00 0.00 0.00 64 1012.0
20260904174523 89 174 1.0 0.0 0.00 0.00 0.00 67 1012.2
20260904173022 87 159 2.0 0.0 0.00 0.00 0.00 67 1012.3
20260904171520 87 228 2.0 0.0 0.00 0.00 0.00 69 1012.3
20260904170018 87 108 3.0 0.0 0.00 0.00 0.00 69 1012.5
20260904164517 87 162 2.0 0.0 0.00 0.00 0.00 69 1012.3
20260904163016 85 164 1.0 0.0 0.00 0.00 0.00 71 1012.3
20260904161513 86 291 2.0 0.0 0.00 0.00 0.00 71 1012.3
20260904160013 85 251 1.0 0.0 0.00 0.00 0.00 74 1012.2
20260904154509 84 207 1.0 0.0 0.00 0.00 0.00 76 1012.2
20260904153006 83 174 2.0 0.0 0.00 0.00 0.00 78 1012.1
20260904151504 83 212 2.0 0.0 0.00 0.00 0.00 78 1011.9
20260904150014 82 207 1.0 0.0 0.00 0.00 0.00 79 1011.9
20260904144601 81 106 1.0 0.0 0.00 0.00 0.00 81 1011.9
20260904143058 81 216 1.0 0.0 0.00 0.00 0.00 81 1011.9
20260904141558 81 192 2.0 0.0 0.00 0.00 0.00 82 1011.8
20260904140105 80 168 1.0 0.0 0.00 0.00 0.00 84 1011.8
20260904134554 80 205 1.0 0.0 0.00 0.00 0.00 85 1011.7
20260904133054 79 201 1.0 0.0 0.00 0.00 0.00 86 1011.9
20260904131553 79 164 1.0 0.0 0.00 0.00 0.00 86 1011.8
20260904130103 79 180 0.0 0.0 0.00 0.00 0.00 86 1011.9
20260904124557 79 116 0.0 0.0 0.00 0.00 0.00 87 1011.8
20260904123051 79 162 1.0 0.0 0.00 0.00 0.00 87 1011.7
20260904121548 79 155 1.0 0.0 0.00 0.00 0.00 86 1011.3
20260904120104 79 118 1.0 0.0 0.00 0.00 0.00 86 1011.1
20260904114543 79 143 2.0 0.0 0.00 0.00 0.00 85 1010.8
20260904113042 79 114 2.0 0.0 0.00 0.00 0.00 85 1010.8
20260904111540 79 150 1.0 0.0 0.00 0.00 0.00 85 1010.5
20260904110042 79 333 1.0 0.0 0.00 0.00 0.00 85 1010.5
20260904104537 79 132 2.0 0.0 0.00 0.00 0.00 85 1010.4
20260904103037 79 199 1.0 0.0 0.00 0.00 0.00 84 1010.3
20260904101535 79 139 1.0 0.0 0.00 0.00 0.00 84 1010.2
20260904100034 79 161 1.0 0.0 0.00 0.00 0.00 84 1010.2
20260904094535 79 137 1.0 0.0 0.00 0.00 0.00 84 1010.1
20260904093037 80 133 1.0 0.0 0.00 0.00 0.00 83 1010.0
20260904091532 80 205 1.0 0.0 0.00 0.00 0.00 83 1010.1
20260904090033 80 228 0.0 0.0 0.00 0.00 0.00 83 1010.1
20260904084532 80 158 1.0 0.0 0.00 0.00 0.00 83 1010.1
20260904083036 80 165 1.0 0.0 0.00 0.00 0.00 83 1010.1
20260904081537 80 210 1.0 0.0 0.00 0.00 0.00 83 1010.1
20260904080029 80 114 1.0 0.0 0.00 0.00 0.00 82 1010.1
20260904074528 80 176 2.0 0.0 0.00 0.00 0.00 82 1010.2
20260904073028 80 141 2.0 0.0 0.00 0.00 0.00 82 1010.2
20260904071525 80 207 2.0 0.0 0.00 0.00 0.00 81 1010.3
20260904070026 80 185 3.0 0.0 0.00 0.00 0.00 81 1010.5
20260904064525 80 168 1.0 0.0 0.00 0.00 0.00 80 1010.5
20260904063025 80 130 3.0 0.0 0.00 0.00 0.00 80 1010.5
20260904061538 80 124 2.0 0.0 0.00 0.00 0.00 80 1010.4
20260904060024 80 113 1.0 0.0 0.00 0.00 0.00 80 1010.6
20260904054524 80 243 2.0 0.0 0.00 0.00 0.00 80 1010.5
20260904053021 80 220 3.0 0.0 0.00 0.00 0.00 80 1010.4
20260904051518 80 137 3.0 0.0 0.00 0.00 0.00 79 1010.3
20260904050020 80 180 2.0 0.0 0.00 0.00 0.00 80 1010.1
20260904044527 80 143 1.0 0.0 0.00 0.00 0.00 80 1010.2
20260904043023 80 338 2.0 0.0 0.00 0.00 0.00 80 1010.2
20260904041515 80 147 2.0 0.0 0.00 0.00 0.00 79 1010.2
20260904040016 80 172 2.0 0.0 0.00 0.00 0.00 79 1010.1
20260904034514 80 132 2.0 0.0 0.00 0.00 0.00 79 1010.1
20260904033014 80 203 3.0 0.0 0.00 0.00 0.00 78 1010.0
20260904031513 81 128 3.0 0.0 0.00 0.00 0.00 77 1009.9
20260904030019 81 132 2.0 0.0 0.00 0.00 0.00 75 1009.8